Flag for U.S.A. Weather past 2 weeks in Milwaukee, Wisconsin, U.S.A.

Now
45 °F

Clear.


Feels Like: 45 °F
Forecast: 40 / 55 °F
Wind: No wind

Location: Milwaukee / Timmerman

Current Time: Oct 22, 2014 at 9:00:10 PM

Latest Report: Oct 22, 2014 at 7:45 PM


Visibility: 10 mi

Pressure: 30.28 "Hg

Humidity: 76%

Dew point: 37 °F

Location of MilwaukeeLocation

Historic Weather in Milwaukee — Graph

°F

Milwaukee temperature yesterday

Maximum temperature yesterday: 48 °F (at 12:45 PM)
Minimum temperature yesterday: 34 °F (at 10:15 PM)
Average temperature yesterday: 43 °F

Past Weeks' High & Low Weather Summary

 TemperatureHumidityPressure
High64 °F (Oct 8, 3:45 PM)100% (Oct 11, 6:35 AM)30.38 "Hg (Oct 11, 6:35 AM)
Low30 °F (Oct 22, 6:45 AM)26% (Oct 9, 4:45 PM)29.50 "Hg (Oct 14, 1:55 AM)
Average46 °F79%29.95 "Hg
* Reported Oct 7 7:45 PM — Oct 22 7:45 PM, Milwaukee, Weather by CustomWeather, © 2014

Note: Actual official high and low records may vary slightly from our data, if they occured in-between our weather recording intervals... More about our weather records

Advertising

Milwaukee weather history for previous 24 hours

 ConditionsComfort  
Time TempWeatherWind HumidityBarometerVisibility
7:45 PM
Oct 22
45 °FClear.No wind76%30.28 "Hg10 mi
5:45 PM48 °FSunny.6 mph66%30.29 "Hg10 mi
4:45 PM48 °FSunny.8 mph66%30.29 "Hg10 mi
3:45 PM52 °FSunny.7 mph58%30.31 "Hg10 mi
2:45 PM52 °FSunny.6 mph62%30.32 "Hg10 mi
1:45 PM54 °FSunny.7 mph54%30.34 "Hg10 mi
12:45 PM52 °FPartly sunny.6 mph58%30.36 "Hg10 mi
11:45 AM52 °FPartly sunny.7 mph58%30.37 "Hg10 mi
10:45 AM48 °FOvercast.5 mph66%30.38 "Hg10 mi
9:45 AM46 °FSunny.No wind76%30.37 "Hg10 mi
8:45 AM37 °FSunny.No wind87%30.38 "Hg10 mi
7:45 AM32 °FClear.No wind87%30.35 "Hg10 mi
6:45 AM30 °FClear.No wind93%30.34 "Hg10 mi
6:35 AM32 °FClear.No wind93%30.34 "Hg10 mi
6:15 AM32 °FIce fog.No wind87%30.34 "Hg5 mi
5:55 AM32 °FClear.No wind93%30.33 "Hg10 mi
5:35 AM32 °FClear.No wind93%30.33 "Hg10 mi
5:15 AM32 °FClear.No wind93%30.33 "Hg10 mi
4:55 AM32 °FClear.No wind93%30.32 "Hg10 mi
4:35 AM32 °FClear.No wind93%30.32 "Hg10 mi
4:15 AM32 °FPassing clouds.No wind93%30.32 "Hg10 mi
3:55 AM32 °FPassing clouds.No wind93%30.32 "Hg10 mi
3:15 AM32 °FClear.No wind87%30.31 "Hg7 mi
2:55 AM32 °FClear.No wind93%30.31 "Hg10 mi
2:15 AM32 °FClear.No wind93%30.30 "Hg10 mi
1:55 AM32 °FClear.No wind100%30.30 "Hg10 mi
1:15 AM32 °FClear.No wind100%30.29 "Hg7 mi
12:55 AM34 °FClear.No wind93%30.29 "Hg10 mi
12:35 AM34 °FClear.No wind93%30.28 "Hg10 mi
12:15 AM34 °FClear.No wind93%30.29 "Hg10 mi
11:55 PM
Oct 21
34 °FClear.No wind93%30.28 "Hg10 mi
11:15 PM34 °FClear.No wind93%30.28 "Hg10 mi
10:55 PM34 °FClear.3 mph93%30.28 "Hg10 mi
10:35 PM34 °FClear.No wind93%30.28 "Hg10 mi
10:15 PM34 °FClear.No wind93%30.28 "Hg10 mi
9:55 PM36 °FClear.No wind87%30.29 "Hg10 mi
9:35 PM37 °FClear.No wind87%30.28 "Hg10 mi
9:15 PM37 °FClear.3 mph87%30.28 "Hg10 mi
Weather by CustomWeather, © 2014

See weather overviewHow to use our weather pages